[[{"header":{"parameterUnit":"m.s-1","parameterCategory":2,"la1":30.2991,"la2":30.254,"lo1":-89.0895,"lo2":-89.0444,"dy":0.0017,"dx":0.0017,"nx":28,"ny":28,"refTime":"2025-09-12T03:00:00:Z","depth":"0","parameterNumber":2,"parameterNumberName":"U-component_of_CURRENTS"},"data":[0,0,0,0,0,0,0,0,0,0,0,0,0,0,0,0,0,0,0,0,0,0,0,0,0,0,0,0,0,0,0,0,0,0,0,0,0,0,0,0,0,0,0,0,0,0,0,0,0,0,0,0,0,0,0,0,0,0,-0.2094,-0.2095,0,-0.2186,-0.2187,-0.2188,-0.217,-0.2168,-0.2167,-0.2166,-0.2097,-0.2096,-0.2096,0,0,0,0,0,0,0,0,0,0,0,0,0,-0.1962,-0.1964,-0.2094,-0.2096,-0.2097,-0.2186,-0.2187,-0.2188,-0.217,-0.2168,-0.2167,-0.2165,-0.2097,-0.2096,-0.2096,0,0,0,0,0,0,0,0,0,0,0,0,0,-0.203,-0.1965,-0.2094,-0.2101,-0.2103,-0.2186,-0.2187,-0.2188,-0.217,-0.2168,-0.2166,-0.2164,-0.2097,-0.2096,-0.2096,-0.2131,0,0,-0.2093,-0.2092,0,0,0,0,0,0,0,0,-0.2026,-0.2034,-0.2099,-0.2101,-0.2103,-0.2168,-0.2116,-0.2162,-0.2171,-0.2141,-0.2166,-0.2163,-0.2109,-0.2107,-0.2126,-0.2127,-0.2124,-0.2093,-0.2092,-0.2092,-0.2092,0,0,0,0,0,0,0,-0.2021,-0.2031,-0.2127,-0.2101,-0.2103,-0.2121,-0.2127,-0.2125,-0.213,-0.2143,-0.2143,-0.216,-0.2109,-0.2127,-0.2124,-0.2123,-0.2093,-0.2092,-0.2091,-0.2091,-0.2155,-0.2157,0,0,0,0,0,0,-0.2017,-0.2026,-0.2124,-0.213,-0.2063,-0.2125,-0.2132,-0.2146,-0.2133,-0.2132,-0.2162,-0.2159,-0.213,-0.2125,-0.2121,-0.2177,-0.2092,-0.2091,-0.2091,-0.2152,-0.2155,-0.2158,0,0,0,0,0,0,-0.2014,-0.2025,-0.212,-0.2083,-0.2097,-0.2129,-0.2145,-0.2149,-0.2162,-0.2149,-0.2143,-0.217,-0.2128,-0.2123,-0.2136,-0.2173,-0.2091,-0.209,-0.215,-0.2153,-0.2156,-0.2278,0,0,0,0,0,0,-0.2009,-0.2023,-0.2021,-0.2083,-0.2099,-0.2173,-0.2148,-0.2152,-0.2177,-0.2174,-0.2155,-0.2147,-0.2126,-0.2138,-0.2135,-0.217,-0.2089,-0.2147,-0.2151,-0.2155,-0.2271,-0.2285,-0.2297,0,0,0,0,0,-0.2004,-0.2016,-0.2021,-0.2032,-0.2099,-0.2174,-0.2185,-0.2198,-0.218,-0.2198,-0.2192,-0.2147,-0.2162,-0.214,-0.2136,-0.2171,-0.2145,-0.215,-0.2155,-0.2266,-0.2282,-0.2297,0,0,0,0,0,0,-0.196,-0.2018,-0.2023,-0.2051,-0.211,-0.2172,-0.2185,-0.2203,-0.2218,-0.2201,-0.218,-0.2174,-0.2202,-0.2172,-0.2148,-0.2203,-0.2145,-0.2149,-0.223,-0.2245,-0.2258,-0.2255,-0.2088,0,0,0,0,0,-0.1952,-0.1965,-0.204,-0.2058,-0.2087,-0.2137,-0.2163,-0.2184,-0.2214,-0.2217,-0.2216,-0.2209,-0.2225,-0.2221,-0.2225,-0.2253,-0.2203,-0.2272,-0.2285,-0.2296,-0.2292,-0.2287,-0.2298,-0.2174,-0.2174,-0.2174,0,0,-0.1937,-0.1971,-0.1976,-0.2048,-0.2085,-0.2159,-0.2146,-0.2195,-0.2257,-0.2206,-0.2263,-0.2255,-0.2244,-0.2286,-0.2294,-0.226,-0.2301,-0.2303,-0.2312,-0.2302,-0.2293,-0.2305,-0.2315,-0.2177,-0.2177,-0.2176,0,0,-0.1932,-0.1949,-0.1968,-0.2032,-0.2103,-0.2155,-0.2173,-0.2249,-0.2274,-0.2341,-0.2322,-0.2343,-0.2361,-0.2375,-0.2379,-0.2464,-0.2374,-0.2453,-0.2511,-0.2507,-0.2516,-0.2524,-0.2452,-0.2452,-0.2455,-0.2455,-0.2455,0,-0.191,-0.1957,-0.1989,-0.2051,-0.2112,-0.216,-0.2233,-0.2286,-0.2358,-0.2384,-0.2367,-0.2419,-0.2414,-0.2467,-0.2502,-0.2495,-0.2443,-0.2455,-0.2523,-0.253,-0.2536,-0.2459,-0.2458,-0.2461,-0.2461,-0.246,-0.2459,0,-0.1939,-0.1992,-0.2017,-0.2112,-0.2184,-0.2251,-0.235,-0.2406,-0.2442,-0.2488,-0.2544,-0.2551,-0.257,-0.2586,-0.2572,-0.2619,-0.255,-0.2544,-0.2481,-0.2556,-0.247,-0.2467,-0.2471,-0.2468,-0.2466,-0.2465,0,0,-0.1872,-0.2006,-0.2018,-0.2078,-0.2226,-0.2285,-0.2404,-0.2515,-0.2554,-0.2624,-0.2664,-0.2735,-0.2708,-0.2712,-0.2695,-0.2699,-0.2705,-0.2639,-0.2635,-0.256,-0.2632,-0.2428,-0.2403,-0.2704,-0.2704,-0.2705,-0.2544,0,-0.1891,-0.1989,-0.2076,-0.2204,-0.2278,-0.2389,-0.249,-0.259,-0.2649,-0.2693,-0.2724,-0.2746,-0.2766,-0.2747,-0.2774,-0.2711,-0.2705,-0.2744,-0.2574,-0.2568,-0.2375,-0.2398,-0.2297,-0.2132,-0.2541,-0.254,-0.2539,0,-0.1904,-0.1977,-0.208,-0.2246,-0.2287,-0.2371,-0.2512,-0.2609,-0.2701,-0.2735,-0.2781,-0.2777,-0.2806,-0.2793,-0.2764,-0.2778,-0.2721,-0.2676,-0.2668,-0.2431,-0.2359,-0.2129,-0.211,-0.2119,-0.2533,-0.2534,-0.2534,0,-0.1819,-0.199,-0.2058,-0.2121,-0.2309,-0.2371,-0.247,-0.2597,-0.264,-0.2727,-0.2704,-0.2786,-0.2712,-0.275,-0.2658,-0.2714,-0.2556,-0.2626,-0.2391,-0.2373,-0.2228,-0.2195,-0.2192,-0.2605,-0.2605,-0.2606,-0.2606,0,-0.1807,-0.1874,-0.2012,-0.2053,-0.2144,-0.2302,-0.2377,-0.2485,-0.2565,-0.2558,-0.2679,-0.2612,-0.2686,-0.2601,-0.2624,-0.2441,-0.2531,-0.238,-0.2324,-0.2262,-0.2235,-0.2186,-0.2228,-0.26,-0.2601,-0.2602,-0.2603,0,-0.1703,-0.1796,-0.1882,-0.2046,-0.2097,-0.215,-0.2296,-0.2334,-0.2423,-0.2397,-0.2404,-0.2418,-0.2316,-0.2338,-0.2289,-0.2279,-0.2157,-0.2125,-0.1998,-0.1931,-0.1772,-0.1823,-0.1696,-0.1648,-0.1898,-0.1892,-0.1887,0,-0.1667,-0.1687,-0.1816,-0.1853,-0.1923,-0.2023,-0.2085,-0.2238,-0.2261,-0.2242,-0.2189,-0.2073,-0.1972,-0.1813,-0.1793,-0.1757,-0.1846,-0.1619,-0.1748,-0.1718,-0.1739,-0.1799,-0.1777,-0.1602,-0.1595,-0.1589,-0.1585,0,-0.1595,-0.1607,-0.1656,-0.172,-0.1781,-0.1855,-0.194,-0.193,-0.2045,-0.1986,-0.1856,-0.1765,-0.1572,-0.1448,-0.1349,-0.1354,-0.1586,-0.1495,-0.1539,-0.1547,-0.1544,-0.1483,-0.1715,-0.1534,-0.1539,-0.1543,-0.1546,-0.1548,-0.1517,-0.1501,-0.1539,-0.1594,-0.1656,-0.1682,-0.1689,-0.1724,-0.1689,-0.1585,-0.1546,-0.1368,-0.1264,-0.1115,-0.1077,-0.1006,-0.1142,-0.1075,-0.1146,-0.1214,-0.1158,-0.1217,-0.0928,-0.093,-0.0931,-0.0932,-0.0933,0,-0.1448,-0.1418,-0.1438,-0.1491,-0.1506,-0.1579,-0.1594,-0.1541,-0.1427,-0.1322,-0.119,-0.1026,-0.0882,-0.0849,-0.0771,-0.0734,-0.0796,-0.0751,-0.0903,-0.0906,-0.1011,-0.099,-0.0611,-0.0611,-0.0611,-0.0611,-0.0611,-0.0611,-0.1406,-0.1364,-0.1354,-0.1345,-0.1375,-0.1352,-0.1328,-0.1203,-0.1117,-0.0887,-0.0778,-0.0704,-0.0688,-0.0768,-0.0708,-0.0667,-0.0739,-0.0653,-0.0727,-0.0908,-0.0949,-0.0988,-0.0981,-0.0606,-0.0606,-0.0601,-0.0601,-0.0601]},{"header":{"parameterUnit":"m.s-1","parameterCategory":2,"la1":30.2991,"la2":30.254,"lo1":-89.0895,"lo2":-89.0444,"dy":0.0017,"dx":0.0017,"nx":28,"ny":28,"refTime":"2025-09-12T03:00:00:Z","depth":"0","parameterNumber":3,"parameterNumberName":"V-component_of_CURRENTS"},"data":[0,0,0,0,0,0,0,0,0,0,0,0,0,0,0,0,0,0,0,0,0,0,0,0,0,0,0,0,0,0,0,0,0,0,0,0,0,0,0,0,0,0,0,0,0,0,0,0,0,0,0,0,0,0,0,0,0,0,-0.0537,-0.0536,0,-0.0422,-0.0421,-0.042,-0.0369,-0.0369,-0.0369,-0.0369,-0.0334,-0.0334,-0.0333,0,0,0,0,0,0,0,0,0,0,0,0,0,-0.0664,-0.0662,-0.0538,-0.0536,-0.0534,-0.0422,-0.0421,-0.042,-0.0369,-0.0369,-0.0369,-0.0369,-0.0335,-0.0334,-0.0333,0,0,0,0,0,0,0,0,0,0,0,0,0,-0.0589,-0.0662,-0.0538,-0.0492,-0.0486,-0.0422,-0.0421,-0.042,-0.037,-0.0369,-0.0369,-0.0368,-0.0335,-0.0334,-0.0333,-0.0335,0,0,-0.033,-0.0329,0,0,0,0,0,0,0,0,-0.0594,-0.0586,-0.05,-0.0495,-0.0488,-0.0405,-0.0452,-0.0394,-0.037,-0.0419,-0.0369,-0.0368,-0.0363,-0.036,-0.0344,-0.0333,-0.0332,-0.033,-0.0329,-0.0329,-0.0328,0,0,0,0,0,0,0,-0.0599,-0.059,-0.0497,-0.0498,-0.0491,-0.0459,-0.0449,-0.0441,-0.04,-0.0415,-0.0409,-0.0389,-0.0361,-0.0345,-0.0343,-0.0331,-0.033,-0.0329,-0.0328,-0.0328,-0.0273,-0.0272,0,0,0,0,0,0,-0.0607,-0.0595,-0.05,-0.0493,-0.0536,-0.0457,-0.0446,-0.0436,-0.0398,-0.039,-0.0389,-0.0387,-0.0347,-0.0345,-0.0342,-0.0323,-0.0329,-0.0328,-0.0327,-0.0273,-0.0272,-0.0271,0,0,0,0,0,0,-0.061,-0.06,-0.0505,-0.0537,-0.0522,-0.0455,-0.0445,-0.0434,-0.0418,-0.0377,-0.0371,-0.0383,-0.0347,-0.0343,-0.0324,-0.0322,-0.0327,-0.0326,-0.0274,-0.0273,-0.0272,-0.0298,0,0,0,0,0,0,-0.0614,-0.0602,-0.0607,-0.0538,-0.052,-0.0478,-0.0444,-0.0432,-0.0403,-0.0399,-0.037,-0.0366,-0.0346,-0.0326,-0.0323,-0.0321,-0.0326,-0.0276,-0.0274,-0.0272,-0.0299,-0.0298,-0.0298,0,0,0,0,0,-0.062,-0.0634,-0.0608,-0.0597,-0.0527,-0.0478,-0.0468,-0.0421,-0.0404,-0.0404,-0.037,-0.0367,-0.0313,-0.0325,-0.0322,-0.0319,-0.0276,-0.0274,-0.0272,-0.0299,-0.0298,-0.0298,0,0,0,0,0,0,-0.0691,-0.0627,-0.0598,-0.0592,-0.054,-0.0468,-0.0463,-0.0426,-0.0399,-0.0398,-0.0362,-0.0356,-0.0334,-0.0322,-0.0335,-0.0295,-0.0292,-0.029,-0.0313,-0.0312,-0.0312,-0.034,-0.0325,0,0,0,0,0,-0.0707,-0.0704,-0.0628,-0.0623,-0.06,-0.0532,-0.0508,-0.0474,-0.0431,-0.0418,-0.0389,-0.0357,-0.0323,-0.0315,-0.029,-0.028,-0.026,-0.0271,-0.0271,-0.0271,-0.0289,-0.0253,-0.0252,-0.0265,-0.0265,-0.0265,0,0,-0.0732,-0.0696,-0.0693,-0.0638,-0.0596,-0.0576,-0.0519,-0.0488,-0.0469,-0.0421,-0.0402,-0.0359,-0.0318,-0.0293,-0.0283,-0.0286,-0.025,-0.0268,-0.0269,-0.0288,-0.0251,-0.025,-0.0249,-0.0264,-0.0264,-0.0264,0,0,-0.0783,-0.0748,-0.0761,-0.0723,-0.0662,-0.0616,-0.0609,-0.0538,-0.0506,-0.0473,-0.0424,-0.0379,-0.0344,-0.0302,-0.0278,-0.0263,-0.0246,-0.0253,-0.0282,-0.0246,-0.0245,-0.0244,-0.0195,-0.019,-0.0257,-0.0257,-0.0257,0,-0.0814,-0.0816,-0.0757,-0.0753,-0.0728,-0.0639,-0.0641,-0.0592,-0.0524,-0.0498,-0.0476,-0.0385,-0.0346,-0.0301,-0.0285,-0.0264,-0.0241,-0.029,-0.0248,-0.0247,-0.0245,-0.0195,-0.0189,-0.0258,-0.0258,-0.0258,-0.0258,0,-0.0867,-0.0865,-0.0868,-0.0835,-0.0804,-0.079,-0.0708,-0.0672,-0.0618,-0.0563,-0.0502,-0.043,-0.0379,-0.0345,-0.0311,-0.0276,-0.0259,-0.0249,-0.0256,-0.0246,-0.0193,-0.0186,-0.026,-0.0259,-0.0259,-0.0259,0,0,-0.0931,-0.0914,-0.0911,-0.0912,-0.0845,-0.0824,-0.0787,-0.0723,-0.069,-0.0617,-0.0578,-0.0489,-0.0441,-0.041,-0.0349,-0.0309,-0.0257,-0.0283,-0.0281,-0.0248,-0.0171,-0.0104,-0.009,-0.0246,-0.0246,-0.0245,-0.0129,0,-0.0984,-0.1017,-0.0983,-0.0996,-0.0999,-0.0914,-0.088,-0.081,-0.0735,-0.0674,-0.0578,-0.0521,-0.0467,-0.0433,-0.0385,-0.0284,-0.0244,-0.0289,-0.0175,-0.0172,-0.0125,-0.0082,-0.0043,0.0068,-0.0123,-0.0122,-0.0121,0,-0.1036,-0.105,-0.1091,-0.1068,-0.1058,-0.1052,-0.0978,-0.0937,-0.0823,-0.0761,-0.0688,-0.0606,-0.0517,-0.0479,-0.033,-0.0364,-0.0282,-0.0207,-0.0201,-0.0133,-0.0094,0.0025,0.0087,0.0201,-0.011,-0.0111,-0.0112,0,-0.1106,-0.1116,-0.1158,-0.1151,-0.1113,-0.1108,-0.1077,-0.0974,-0.0923,-0.0824,-0.0762,-0.0663,-0.0574,-0.0489,-0.0312,-0.033,-0.0145,-0.015,-0.0015,-0.0009,0.005,0.006,0.0221,-0.0071,-0.0071,-0.0071,-0.0071,0,-0.1169,-0.1194,-0.12,-0.122,-0.1242,-0.1186,-0.1171,-0.111,-0.1011,-0.0931,-0.0823,-0.0721,-0.0572,-0.0431,-0.0328,-0.0128,-0.0155,-0.0013,0.0026,0.0047,0.0055,0.0175,0.0202,-0.0067,-0.0068,-0.0069,-0.0069,0,-0.123,-0.124,-0.1283,-0.128,-0.1283,-0.1297,-0.1245,-0.1213,-0.1103,-0.0995,-0.0962,-0.0753,-0.0554,-0.0394,-0.0203,-0.0106,0.0125,0.0109,0.0136,0.0176,0.0385,0.0408,0.0581,0.066,0.026,0.0263,0.0265,0,-0.1266,-0.13,-0.134,-0.1371,-0.1379,-0.1385,-0.1373,-0.1282,-0.1222,-0.0989,-0.0931,-0.0705,-0.0515,-0.0205,-0.001,0.0184,0.0254,0.0334,0.0302,0.0415,0.0469,0.0476,0.053,0.0382,0.0384,0.0387,0.0388,0,-0.1319,-0.1337,-0.1371,-0.1448,-0.1474,-0.1472,-0.144,-0.1399,-0.1237,-0.11,-0.087,-0.0707,-0.0359,-0.0083,0.0186,0.0297,0.0422,0.0387,0.0496,0.0573,0.0598,0.0687,0.0293,0.0409,0.0407,0.0405,0.0404,0.0403,-0.1346,-0.1384,-0.1441,-0.1511,-0.1541,-0.1531,-0.1506,-0.1414,-0.1288,-0.1039,-0.0867,-0.0568,-0.0161,0.0237,0.0365,0.0664,0.061,0.0737,0.0757,0.0755,0.0828,0.0488,0.0649,0.0648,0.0648,0.0647,0.0647,0,-0.1372,-0.142,-0.1494,-0.1563,-0.1606,-0.1598,-0.1521,-0.1426,-0.1256,-0.1028,-0.0797,-0.0252,0.0107,0.0449,0.0866,0.1016,0.1031,0.1089,0.1101,0.1139,0.0843,0.0846,0.1066,0.1066,0.1066,0.1066,0.1066,0.1065,-0.1387,-0.1463,-0.1512,-0.1604,-0.1641,-0.1635,-0.1577,-0.1371,-0.1176,-0.0774,-0.0439,-0.0158,0.0403,0.0941,0.1293,0.1324,0.1443,0.1434,0.1498,0.1279,0.1247,0.1216,0.1228,0.1525,0.1526,0.1794,0.1796,0.1798]}],[{"header":{"parameterUnit":"m.s-1","parameterCategory":2,"la1":30.2991,"la2":30.254,"lo1":-89.0895,"lo2":-89.0444,"dy":0.0017,"dx":0.0017,"nx":28,"ny":28,"refTime":"2025-09-12T03:00:00:Z","depth":"2","parameterNumber":2,"parameterNumberName":"U-component_of_CURRENTS"},"data":[0,0,0,0,0,0,0,0,0,0,0,0,0,0,0,0,0,0,0,0,0,0,0,0,0,0,0,0,0,0,0,0,0,0,0,0,0,0,0,0,0,0,0,0,0,0,0,0,0,0,0,0,0,0,0,0,0,0,-0.2265,-0.2265,0,-0.224,-0.2239,-0.2238,-0.2199,-0.2199,-0.2199,-0.2198,-0.2137,-0.2136,-0.2134,0,0,0,0,0,0,0,0,0,0,0,0,0,-0.2175,-0.2177,-0.2265,-0.2265,-0.2265,-0.224,-0.2239,-0.2238,-0.2199,-0.2199,-0.2198,-0.2198,-0.2137,-0.2136,-0.2134,0,0,0,0,0,0,0,0,0,0,0,0,0,-0.2184,-0.2178,-0.2265,-0.2246,-0.2244,-0.224,-0.2239,-0.2238,-0.2199,-0.2199,-0.2198,-0.2198,-0.2138,-0.2136,-0.2134,-0.2129,0,0,-0.2127,-0.2126,0,0,0,0,0,0,0,0,-0.2184,-0.2187,-0.2249,-0.2247,-0.2246,-0.2226,-0.2185,-0.2201,-0.2199,-0.2211,-0.2198,-0.2198,-0.2167,-0.2162,-0.2152,-0.2126,-0.2123,-0.2127,-0.2126,-0.2125,-0.2124,0,0,0,0,0,0,0,-0.2183,-0.2187,-0.225,-0.2249,-0.2247,-0.2204,-0.2205,-0.2187,-0.2187,-0.221,-0.2208,-0.2214,-0.2165,-0.2154,-0.215,-0.2122,-0.2127,-0.2125,-0.2124,-0.2123,-0.219,-0.2193,0,0,0,0,0,0,-0.2203,-0.2188,-0.2251,-0.2249,-0.2219,-0.2207,-0.2208,-0.2229,-0.2188,-0.2183,-0.2214,-0.2212,-0.2158,-0.2153,-0.2148,-0.2155,-0.2125,-0.2123,-0.2122,-0.2187,-0.2191,-0.2194,0,0,0,0,0,0,-0.2201,-0.2209,-0.2252,-0.222,-0.2223,-0.221,-0.2233,-0.2229,-0.2245,-0.2192,-0.2185,-0.2239,-0.2157,-0.2151,-0.2159,-0.2152,-0.2122,-0.212,-0.2184,-0.2188,-0.2193,-0.2159,0,0,0,0,0,0,-0.2199,-0.2209,-0.2215,-0.2223,-0.2226,-0.2247,-0.2234,-0.2229,-0.225,-0.2247,-0.2211,-0.2203,-0.2157,-0.2163,-0.2157,-0.2148,-0.2119,-0.218,-0.2186,-0.2191,-0.2156,-0.2161,-0.2166,0,0,0,0,0,-0.2196,-0.2225,-0.2216,-0.2223,-0.2241,-0.2248,-0.2245,-0.2229,-0.2252,-0.2247,-0.2246,-0.2205,-0.2196,-0.2163,-0.2156,-0.2146,-0.2177,-0.2184,-0.2191,-0.2154,-0.216,-0.2166,0,0,0,0,0,0,-0.2183,-0.2225,-0.2214,-0.2251,-0.2244,-0.2243,-0.2251,-0.2256,-0.2254,-0.2273,-0.2228,-0.222,-0.2206,-0.222,-0.2185,-0.2197,-0.2187,-0.2193,-0.2162,-0.2168,-0.2173,-0.2162,-0.2117,0,0,0,0,0,-0.2186,-0.2214,-0.2232,-0.2248,-0.2266,-0.2267,-0.227,-0.2274,-0.228,-0.2281,-0.2252,-0.2253,-0.2227,-0.2235,-0.2203,-0.2225,-0.2196,-0.2229,-0.2234,-0.2238,-0.2234,-0.2204,-0.2203,-0.2217,-0.2217,-0.2217,0,0,-0.2173,-0.2205,-0.2212,-0.2245,-0.2252,-0.2252,-0.2268,-0.2301,-0.2286,-0.2276,-0.2258,-0.2245,-0.2234,-0.2221,-0.2224,-0.2236,-0.222,-0.2246,-0.2248,-0.2243,-0.221,-0.2208,-0.2206,-0.2221,-0.2221,-0.222,0,0,-0.2188,-0.2212,-0.2249,-0.223,-0.2262,-0.2271,-0.2294,-0.2312,-0.231,-0.2312,-0.2287,-0.2293,-0.2275,-0.2249,-0.2241,-0.2281,-0.2222,-0.2291,-0.2323,-0.2293,-0.2289,-0.2285,-0.2225,-0.2217,-0.2323,-0.2323,-0.2323,0,-0.2169,-0.2209,-0.2249,-0.2255,-0.2239,-0.2287,-0.2292,-0.2291,-0.2295,-0.2297,-0.231,-0.2293,-0.2279,-0.2258,-0.2272,-0.2279,-0.2251,-0.2279,-0.229,-0.2286,-0.2283,-0.2223,-0.2214,-0.2322,-0.2322,-0.2323,-0.2323,0,-0.2186,-0.2196,-0.2218,-0.2237,-0.2232,-0.2245,-0.2255,-0.2274,-0.2307,-0.229,-0.2289,-0.2285,-0.228,-0.2287,-0.2286,-0.2272,-0.2251,-0.2262,-0.225,-0.2278,-0.2215,-0.2205,-0.2321,-0.2322,-0.2322,-0.2322,0,0,-0.2166,-0.2229,-0.2214,-0.2206,-0.2221,-0.2218,-0.2236,-0.2249,-0.2239,-0.2267,-0.225,-0.2252,-0.2269,-0.2268,-0.2274,-0.228,-0.2225,-0.228,-0.2279,-0.2177,-0.2132,-0.2052,-0.2033,-0.2231,-0.223,-0.2229,-0.2086,0,-0.2153,-0.2203,-0.2207,-0.2174,-0.2204,-0.2202,-0.2189,-0.2196,-0.2207,-0.219,-0.2239,-0.2201,-0.2253,-0.2251,-0.2268,-0.2227,-0.2205,-0.2261,-0.216,-0.2156,-0.2045,-0.2022,-0.1894,-0.1751,-0.2077,-0.2075,-0.2074,0,-0.2127,-0.2181,-0.2218,-0.2181,-0.2182,-0.2157,-0.2151,-0.2124,-0.2128,-0.2132,-0.2156,-0.2154,-0.2174,-0.2209,-0.2176,-0.221,-0.2169,-0.2149,-0.2142,-0.2072,-0.2059,-0.1788,-0.1722,-0.2058,-0.2059,-0.206,-0.2061,0,-0.2125,-0.2125,-0.218,-0.2154,-0.2166,-0.2165,-0.2145,-0.2135,-0.2089,-0.2086,-0.2078,-0.209,-0.21,-0.2084,-0.2081,-0.2112,-0.2022,-0.2051,-0.1929,-0.1921,-0.1795,-0.1779,-0.1988,-0.1989,-0.1989,-0.1989,-0.199,0,-0.2092,-0.2079,-0.2186,-0.2189,-0.2172,-0.2164,-0.2103,-0.2092,-0.2055,-0.1986,-0.2043,-0.2016,-0.2073,-0.2045,-0.2035,-0.1952,-0.198,-0.1906,-0.1876,-0.1782,-0.1767,-0.2038,-0.2045,-0.1984,-0.1985,-0.1986,-0.1987,0,-0.2036,-0.2125,-0.2147,-0.2197,-0.2187,-0.2164,-0.2054,-0.198,-0.1995,-0.1923,-0.1923,-0.1943,-0.1906,-0.1924,-0.1872,-0.187,-0.1801,-0.1752,-0.1628,-0.1587,-0.1725,-0.1734,-0.1588,-0.1584,-0.1581,-0.1578,-0.1575,0,-0.201,-0.2061,-0.2134,-0.2135,-0.2145,-0.2099,-0.203,-0.1969,-0.1887,-0.1866,-0.1826,-0.1802,-0.1746,-0.1663,-0.162,-0.1535,-0.1651,-0.1393,-0.1437,-0.1696,-0.1683,-0.1697,-0.171,-0.1246,-0.1241,-0.1237,-0.1233,0,-0.1935,-0.1999,-0.2034,-0.2074,-0.2032,-0.1932,-0.1849,-0.1777,-0.1711,-0.1688,-0.163,-0.1588,-0.1516,-0.138,-0.1304,-0.126,-0.1408,-0.1306,-0.1582,-0.1383,-0.1366,-0.1356,-0.1381,-0.1197,-0.1201,-0.1204,-0.1206,-0.1207,-0.1844,-0.1857,-0.1945,-0.1932,-0.1895,-0.1776,-0.1636,-0.1574,-0.1458,-0.1389,-0.1418,-0.1332,-0.1311,-0.1108,-0.1031,-0.0996,-0.1102,-0.1096,-0.1111,-0.113,-0.1132,-0.1112,-0.0894,-0.0895,-0.0897,-0.0898,-0.09,0,-0.1707,-0.1746,-0.176,-0.1748,-0.1645,-0.1669,-0.1498,-0.1361,-0.1223,-0.1204,-0.1151,-0.1003,-0.0877,-0.0866,-0.0729,-0.0704,-0.0731,-0.0702,-0.0748,-0.0782,-0.0813,-0.0804,-0.0475,-0.0474,-0.0473,-0.0472,0,0,-0.1645,-0.1627,-0.1651,-0.1508,-0.1479,-0.1277,-0.1156,-0.1035,-0.0962,-0.087,-0.0823,-0.0847,-0.0829,-0.066,-0.0611,-0.0518,-0.0653,-0.0491,-0.0827,-0.0914,-0.0944,-0.1028,-0.1049,0,0,0,0,0]},{"header":{"parameterUnit":"m.s-1","parameterCategory":2,"la1":30.2991,"la2":30.254,"lo1":-89.0895,"lo2":-89.0444,"dy":0.0017,"dx":0.0017,"nx":28,"ny":28,"refTime":"2025-09-12T03:00:00:Z","depth":"2","parameterNumber":3,"parameterNumberName":"V-component_of_CURRENTS"},"data":[0,0,0,0,0,0,0,0,0,0,0,0,0,0,0,0,0,0,0,0,0,0,0,0,0,0,0,0,0,0,0,0,0,0,0,0,0,0,0,0,0,0,0,0,0,0,0,0,0,0,0,0,0,0,0,0,0,0,0.0233,0.0233,0,0.028,0.028,0.0281,0.0321,0.0322,0.0322,0.0323,0.0415,0.0417,0.0419,0,0,0,0,0,0,0,0,0,0,0,0,0,0.0172,0.0173,0.0232,0.0233,0.0234,0.028,0.028,0.0281,0.0321,0.0322,0.0322,0.0323,0.0414,0.0416,0.0419,0,0,0,0,0,0,0,0,0,0,0,0,0,0.0206,0.0173,0.0232,0.026,0.0263,0.028,0.028,0.0281,0.0321,0.0322,0.0323,0.0323,0.0413,0.0416,0.0419,0.042,0,0,0.0428,0.0429,0,0,0,0,0,0,0,0,0.0204,0.0208,0.0255,0.0258,0.0262,0.0296,0.0293,0.033,0.0321,0.0298,0.0323,0.0324,0.0379,0.0385,0.039,0.0425,0.0429,0.0428,0.043,0.0431,0.0432,0,0,0,0,0,0,0,0.0201,0.0206,0.025,0.0256,0.026,0.0269,0.0274,0.03,0.0333,0.03,0.0303,0.031,0.0381,0.0387,0.0393,0.043,0.0428,0.0431,0.0433,0.0434,0.0567,0.0568,0,0,0,0,0,0,0.0197,0.0204,0.0249,0.0252,0.0235,0.0269,0.0275,0.0284,0.0332,0.0341,0.0309,0.0312,0.0382,0.0389,0.0396,0.0399,0.0431,0.0434,0.0436,0.0565,0.0567,0.0569,0,0,0,0,0,0,0.0196,0.0201,0.0247,0.0229,0.0236,0.027,0.0278,0.0284,0.0299,0.0339,0.0348,0.0319,0.0383,0.0392,0.0426,0.0403,0.0435,0.0438,0.0563,0.0565,0.0568,0.0406,0,0,0,0,0,0,0.0194,0.02,0.0193,0.0229,0.0237,0.0243,0.0278,0.0284,0.0302,0.0305,0.035,0.0359,0.0384,0.0421,0.0429,0.0407,0.044,0.056,0.0564,0.0567,0.0409,0.0402,0.0397,0,0,0,0,0,0.0191,0.0177,0.0192,0.0197,0.023,0.0242,0.0245,0.0272,0.0301,0.0292,0.0338,0.0358,0.045,0.0424,0.0433,0.0411,0.0559,0.0563,0.0567,0.0411,0.0404,0.0397,0,0,0,0,0,0,0.0147,0.0181,0.0198,0.0196,0.0212,0.0249,0.0242,0.0272,0.0301,0.0313,0.036,0.0371,0.0384,0.0447,0.0418,0.0474,0.0516,0.0522,0.0395,0.0389,0.0383,0.0362,0.0443,0,0,0,0,0,0.0135,0.0131,0.0168,0.0162,0.0171,0.021,0.0218,0.0242,0.0277,0.029,0.032,0.0377,0.0407,0.0436,0.0464,0.0494,0.0537,0.0503,0.0496,0.049,0.0488,0.0536,0.0531,0.0582,0.0582,0.0582,0,0,0.0117,0.0133,0.0133,0.0152,0.0169,0.0157,0.0216,0.0227,0.0219,0.0297,0.0292,0.0335,0.0409,0.0422,0.044,0.0473,0.0499,0.0496,0.0488,0.049,0.0539,0.0533,0.0528,0.0585,0.0584,0.0584,0,0,0.007,0.0095,0.0072,0.0075,0.0097,0.0122,0.0127,0.0163,0.018,0.0197,0.0243,0.0283,0.034,0.0374,0.0407,0.0404,0.0447,0.0429,0.0391,0.0435,0.0429,0.0425,0.0447,0.0446,0.0447,0.0447,0.0447,0,0.0045,0.0024,0.0065,0.0036,0.0029,0.0103,0.0073,0.0097,0.0137,0.0155,0.0184,0.0273,0.0315,0.0347,0.0342,0.0379,0.0412,0.0389,0.0418,0.0415,0.0413,0.0438,0.0439,0.044,0.044,0.0441,0.0442,0,-0.0024,-0.0045,-0.0059,-0.0072,-0.0075,-0.0084,-0.0046,-0.0029,0.0018,0.0052,0.0093,0.0161,0.0228,0.0246,0.0285,0.0304,0.033,0.0374,0.041,0.0397,0.0426,0.0429,0.0429,0.0432,0.0434,0.0436,0,0,-0.0057,-0.01,-0.0107,-0.0137,-0.013,-0.0135,-0.0139,-0.0114,-0.0097,-0.0044,-0.0023,0.0036,0.0099,0.0145,0.0206,0.0251,0.0244,0.0303,0.0309,0.028,0.0324,0.0342,0.0348,0.0284,0.0285,0.0285,0.0337,0,-0.0121,-0.0208,-0.0205,-0.0275,-0.031,-0.026,-0.027,-0.0236,-0.0179,-0.0143,-0.0044,-0.0006,0.0056,0.0091,0.0139,0.0218,0.0252,0.0225,0.0384,0.0388,0.0368,0.0353,0.0344,0.039,0.0341,0.0341,0.0342,0,-0.0191,-0.0238,-0.0329,-0.0371,-0.0378,-0.0401,-0.0379,-0.0378,-0.0299,-0.025,-0.0174,-0.0095,-0.0025,0.0036,0.016,0.0139,0.0215,0.028,0.0285,0.0364,0.0414,0.041,0.04,0.0349,0.0348,0.0348,0.0347,0,-0.0245,-0.0321,-0.0396,-0.0419,-0.0451,-0.0462,-0.0459,-0.0405,-0.0388,-0.0313,-0.0282,-0.0174,-0.0114,-0.0003,0.0143,0.0147,0.0281,0.0311,0.0396,0.0398,0.0456,0.0462,0.0389,0.0389,0.0388,0.0388,0.0388,0,-0.032,-0.0377,-0.0425,-0.0471,-0.0525,-0.0525,-0.0542,-0.0512,-0.0458,-0.0441,-0.0341,-0.0287,-0.0121,-0.0011,0.0114,0.0267,0.0265,0.0378,0.0414,0.0401,0.0401,0.0433,0.0437,0.039,0.039,0.0389,0.0389,0,-0.0379,-0.0416,-0.05,-0.055,-0.056,-0.0599,-0.06,-0.0595,-0.0549,-0.0523,-0.0504,-0.0371,-0.0229,-0.0062,0.0125,0.0227,0.0373,0.0428,0.0389,0.0419,0.046,0.0456,0.051,0.0511,0.0512,0.0513,0.0514,0,-0.0414,-0.0471,-0.0558,-0.0596,-0.062,-0.0659,-0.0668,-0.0637,-0.0622,-0.0561,-0.0544,-0.0415,-0.0288,-0.0018,0.0185,0.0392,0.0407,0.0486,0.0496,0.0443,0.0473,0.0468,0.0463,0.0502,0.0503,0.0503,0.0503,0,-0.0477,-0.0514,-0.0586,-0.066,-0.0696,-0.0728,-0.0738,-0.0736,-0.0694,-0.0665,-0.0581,-0.0482,-0.023,0.002,0.0275,0.0396,0.0451,0.05,0.0473,0.0471,0.044,0.0468,0.0463,0.0507,0.0507,0.0506,0.0506,0.0506,-0.0503,-0.0572,-0.0656,-0.0724,-0.076,-0.0774,-0.0783,-0.0772,-0.0748,-0.0665,-0.0583,-0.0392,-0.0198,0.021,0.0352,0.0495,0.0506,0.0555,0.0552,0.0549,0.0537,0.051,0.0586,0.0586,0.0586,0.0586,0.0586,0,-0.0529,-0.0621,-0.0699,-0.0769,-0.0796,-0.0805,-0.0806,-0.079,-0.0756,-0.062,-0.0507,-0.0262,0.0015,0.0222,0.0455,0.0567,0.055,0.0576,0.054,0.0537,0.0534,0.0519,0.0565,0.0565,0.0565,0.0565,0,0,-0.0548,-0.0656,-0.0712,-0.0776,-0.0806,-0.081,-0.0805,-0.0782,-0.0679,-0.0551,-0.0369,-0.0136,0.0099,0.0249,0.0376,0.0489,0.0478,0.0489,0.05,0.0441,0.0436,0.0525,0.0499,0,0,0,0,0]}],[{"header":{"parameterUnit":"m.s-1","parameterCategory":2,"la1":30.2991,"la2":30.254,"lo1":-89.0895,"lo2":-89.0444,"dy":0.0017,"dx":0.0017,"nx":28,"ny":28,"refTime":"2025-09-12T03:00:00:Z","depth":"4","parameterNumber":2,"parameterNumberName":"U-component_of_CURRENTS"},"data":[0,0,0,0,0,0,0,0,0,0,0,0,0,0,0,0,0,0,0,0,0,0,0,0,0,0,0,0,0,0,0,0,0,0,0,0,0,0,0,0,0,0,0,0,0,0,0,0,0,0,0,0,0,0,0,0,0,0,-0.0852,-0.0853,0,-0.093,-0.0931,-0.0932,-0.0963,-0.0963,-0.0963,-0.0963,-0.1043,-0.1045,-0.1047,0,0,0,0,0,0,0,0,0,0,0,0,0,-0.0784,-0.0785,-0.0852,-0.0853,-0.0854,-0.093,-0.0931,-0.0932,-0.0963,-0.0963,-0.0963,-0.0963,-0.1042,-0.1044,-0.1047,0,0,0,0,0,0,0,0,0,0,0,0,0,-0.0831,-0.0785,-0.0851,-0.088,-0.0884,-0.093,-0.0931,-0.0932,-0.0963,-0.0963,-0.0963,-0.0963,-0.1041,-0.1044,-0.1047,-0.1067,0,0,-0.1057,-0.1058,0,0,0,0,0,0,0,0,-0.0828,-0.0833,-0.0875,-0.0878,-0.0883,-0.0939,-0.0937,-0.0978,-0.0963,-0.0931,-0.0963,-0.0963,-0.1009,-0.1015,-0.1027,-0.107,-0.1074,-0.1057,-0.1059,-0.1061,-0.1061,0,0,0,0,0,0,0,-0.0825,-0.083,-0.0881,-0.0876,-0.0881,-0.0909,-0.0914,-0.0945,-0.0967,-0.0934,-0.0937,-0.0949,-0.1011,-0.1024,-0.1029,-0.1075,-0.1057,-0.106,-0.1062,-0.1063,-0.1174,-0.1175,0,0,0,0,0,0,-0.0817,-0.0827,-0.0878,-0.0883,-0.0857,-0.091,-0.0916,-0.0919,-0.0967,-0.0975,-0.0949,-0.095,-0.1018,-0.1025,-0.1032,-0.111,-0.1061,-0.1064,-0.1065,-0.1173,-0.1174,-0.1175,0,0,0,0,0,0,-0.0815,-0.082,-0.0875,-0.0859,-0.0868,-0.0911,-0.0914,-0.0921,-0.0948,-0.0979,-0.0987,-0.0971,-0.1019,-0.1027,-0.1073,-0.1111,-0.1065,-0.1068,-0.1172,-0.1173,-0.1175,-0.1233,0,0,0,0,0,0,-0.0812,-0.0818,-0.0823,-0.0858,-0.0869,-0.0917,-0.0914,-0.0922,-0.0956,-0.0958,-0.1,-0.1007,-0.1019,-0.1068,-0.1076,-0.1115,-0.107,-0.117,-0.1172,-0.1174,-0.123,-0.1236,-0.1242,0,0,0,0,0,-0.0809,-0.0811,-0.0822,-0.0829,-0.0871,-0.0919,-0.0927,-0.0956,-0.0957,-0.0978,-0.1002,-0.1006,-0.1086,-0.1072,-0.1081,-0.1121,-0.1169,-0.1172,-0.1174,-0.1227,-0.1235,-0.1242,0,0,0,0,0,0,-0.079,-0.0816,-0.0829,-0.084,-0.0885,-0.0925,-0.0942,-0.0964,-0.1,-0.1006,-0.1023,-0.1033,-0.109,-0.1091,-0.1075,-0.1156,-0.1127,-0.1132,-0.1164,-0.1172,-0.1178,-0.1184,-0.1073,0,0,0,0,0,-0.0787,-0.0788,-0.0835,-0.0846,-0.0866,-0.0907,-0.093,-0.096,-0.0995,-0.1011,-0.1041,-0.1069,-0.1105,-0.1126,-0.1157,-0.1201,-0.1189,-0.123,-0.1236,-0.1241,-0.1251,-0.1253,-0.126,-0.1183,-0.1183,-0.1183,0,0,-0.0786,-0.0797,-0.0803,-0.0842,-0.0871,-0.0916,-0.0921,-0.0967,-0.1014,-0.1014,-0.1077,-0.1099,-0.1121,-0.1176,-0.12,-0.1183,-0.1257,-0.1244,-0.1249,-0.1255,-0.1256,-0.1264,-0.127,-0.1185,-0.1184,-0.1184,0,0,-0.0782,-0.0793,-0.0799,-0.0843,-0.0897,-0.0928,-0.0946,-0.1005,-0.1038,-0.1101,-0.1114,-0.1152,-0.1206,-0.1232,-0.1248,-0.1304,-0.1292,-0.1317,-0.1355,-0.1357,-0.1364,-0.1369,-0.1362,-0.1366,-0.1316,-0.1317,-0.1317,0,-0.0783,-0.0799,-0.0815,-0.0848,-0.0892,-0.0935,-0.0985,-0.1026,-0.1098,-0.113,-0.1128,-0.1211,-0.1232,-0.1293,-0.1318,-0.132,-0.1315,-0.1327,-0.1365,-0.137,-0.1375,-0.1366,-0.137,-0.132,-0.1319,-0.1319,-0.1319,0,-0.0792,-0.0825,-0.0836,-0.0887,-0.0937,-0.0988,-0.1056,-0.1104,-0.1143,-0.1188,-0.1262,-0.1288,-0.1332,-0.135,-0.1357,-0.141,-0.1394,-0.1376,-0.1347,-0.1386,-0.1374,-0.1378,-0.1324,-0.1323,-0.1322,-0.1321,0,0,-0.0756,-0.0827,-0.0837,-0.0876,-0.0971,-0.1009,-0.1089,-0.117,-0.1216,-0.128,-0.134,-0.1401,-0.1413,-0.1432,-0.1444,-0.1455,-0.1485,-0.1438,-0.1436,-0.1431,-0.1489,-0.137,-0.1361,-0.1476,-0.1477,-0.1477,-0.1467,0,-0.0769,-0.081,-0.0868,-0.095,-0.0985,-0.1072,-0.1135,-0.1218,-0.1284,-0.1351,-0.1391,-0.1449,-0.1445,-0.1469,-0.1485,-0.1492,-0.1497,-0.149,-0.1451,-0.145,-0.1339,-0.1362,-0.1481,-0.1469,-0.147,-0.147,-0.1471,0,-0.0769,-0.0796,-0.0852,-0.0965,-0.0993,-0.106,-0.117,-0.1245,-0.1348,-0.1396,-0.1462,-0.1498,-0.1549,-0.1525,-0.1547,-0.1545,-0.1527,-0.1518,-0.1516,-0.1387,-0.1336,-0.1421,-0.1476,-0.1475,-0.1475,-0.1475,-0.1474,0,-0.0691,-0.0804,-0.0835,-0.0877,-0.0994,-0.1055,-0.1138,-0.1252,-0.1314,-0.143,-0.1478,-0.154,-0.1572,-0.1568,-0.1559,-0.1559,-0.1561,-0.1548,-0.1421,-0.1412,-0.1498,-0.1492,-0.155,-0.155,-0.155,-0.155,-0.155,0,-0.0667,-0.0712,-0.0804,-0.0817,-0.0901,-0.101,-0.1107,-0.12,-0.1315,-0.1386,-0.1491,-0.1536,-0.1586,-0.1599,-0.1575,-0.15,-0.1564,-0.1431,-0.1402,-0.1522,-0.1519,-0.15,-0.1494,-0.155,-0.155,-0.155,-0.155,0,-0.0586,-0.0636,-0.069,-0.0804,-0.0855,-0.0918,-0.1092,-0.114,-0.1273,-0.1371,-0.1408,-0.1533,-0.1543,-0.1562,-0.1555,-0.1501,-0.1449,-0.1403,-0.1531,-0.1509,-0.13,-0.1298,-0.1267,-0.1262,-0.1259,-0.1256,-0.1253,0,-0.0554,-0.0548,-0.065,-0.0688,-0.0756,-0.0867,-0.0924,-0.1088,-0.1156,-0.1349,-0.1376,-0.1453,-0.1511,-0.1411,-0.1436,-0.1369,-0.1345,-0.1324,-0.1318,-0.1296,-0.1272,-0.1275,-0.1277,-0.1247,-0.1246,-0.1245,-0.1244,0,-0.0491,-0.0507,-0.0535,-0.0584,-0.0658,-0.0745,-0.0868,-0.0917,-0.1097,-0.1221,-0.1305,-0.1331,-0.1344,-0.1332,-0.1287,-0.1241,-0.1345,-0.1285,-0.1293,-0.1287,-0.1272,-0.1252,-0.1259,-0.1232,-0.1234,-0.1235,-0.1235,0,-0.0451,-0.0445,-0.0443,-0.0499,-0.0559,-0.061,-0.0713,-0.0809,-0.0896,-0.1138,-0.1148,-0.1241,-0.1331,-0.1264,-0.1221,-0.1165,-0.1144,-0.1113,-0.1129,-0.1143,-0.1104,-0.1067,-0.0938,0,0,0,0,0,-0.0417,-0.0367,-0.0372,-0.0413,-0.0451,-0.0495,-0.0646,-0.0752,-0.0947,-0.0962,-0.1064,-0.1073,-0.1068,-0.1108,-0.1016,-0.1129,-0.1123,-0.1018,-0.109,-0.1162,-0.1176,-0.1139,0,0,0,0,0,0,-0.0388,-0.0363,-0.032,-0.0291,-0.0305,-0.0355,-0.045,-0.0602,-0.0645,-0.0845,-0.0836,-0.0969,-0.0954,-0.1064,-0.0972,-0.0978,-0.0996,-0.1066,-0.1062,-0.1154,-0.1167,-0.1178,-0.1146,0,0,0,0,0]},{"header":{"parameterUnit":"m.s-1","parameterCategory":2,"la1":30.2991,"la2":30.254,"lo1":-89.0895,"lo2":-89.0444,"dy":0.0017,"dx":0.0017,"nx":28,"ny":28,"refTime":"2025-09-12T03:00:00:Z","depth":"4","parameterNumber":3,"parameterNumberName":"V-component_of_CURRENTS"},"data":[0,0,0,0,0,0,0,0,0,0,0,0,0,0,0,0,0,0,0,0,0,0,0,0,0,0,0,0,0,0,0,0,0,0,0,0,0,0,0,0,0,0,0,0,0,0,0,0,0,0,0,0,0,0,0,0,0,0,-0.0103,-0.0103,0,-0.0099,-0.0099,-0.0099,-0.0063,-0.0062,-0.0061,-0.0061,-0.0007,-0.0006,-0.0005,0,0,0,0,0,0,0,0,0,0,0,0,0,-0.0078,-0.0078,-0.0103,-0.0103,-0.0103,-0.0099,-0.0099,-0.0099,-0.0063,-0.0062,-0.0061,-0.006,-0.0007,-0.0006,-0.0005,0,0,0,0,0,0,0,0,0,0,0,0,0,-0.0082,-0.0079,-0.0103,-0.0085,-0.0083,-0.0099,-0.0099,-0.0099,-0.0063,-0.0062,-0.0061,-0.006,-0.0007,-0.0006,-0.0005,-0.0025,0,0,-0.0002,-0.0002,0,0,0,0,0,0,0,0,-0.0082,-0.0083,-0.0088,-0.0086,-0.0084,-0.0081,-0.0071,-0.0072,-0.0064,-0.0071,-0.0061,-0.0059,-0.0028,-0.0025,-0.0028,-0.0023,-0.002,-0.0002,-0.0002,-0.0001,-0.0001,0,0,0,0,0,0,0,-0.0082,-0.0083,-0.0101,-0.0088,-0.0086,-0.0077,-0.0076,-0.0071,-0.0055,-0.007,-0.0067,-0.0068,-0.0026,-0.0029,-0.0026,-0.002,-0.0002,-0.0001,-0.0001,-0.0,-0.0004,-0.0004,0,0,0,0,0,0,-0.0085,-0.0083,-0.0101,-0.0101,-0.0081,-0.0078,-0.0077,-0.0083,-0.0056,-0.0052,-0.0069,-0.0066,-0.0031,-0.0027,-0.0024,-0.0016,-0.0001,-0.0,0.0,-0.0003,-0.0004,-0.0004,0,0,0,0,0,0,-0.0085,-0.0087,-0.0101,-0.0092,-0.0093,-0.008,-0.0087,-0.0084,-0.008,-0.0057,-0.005,-0.0068,-0.003,-0.0025,-0.0019,-0.0014,0.0,0.0001,-0.0002,-0.0003,-0.0004,-0.0019,0,0,0,0,0,0,-0.0084,-0.0087,-0.0093,-0.0092,-0.0094,-0.0113,-0.0088,-0.0084,-0.0083,-0.0079,-0.0054,-0.0048,-0.0028,-0.002,-0.0018,-0.0013,0.0002,-0.0001,-0.0003,-0.0004,-0.0018,-0.0021,-0.0023,0,0,0,0,0,-0.0083,-0.01,-0.0094,-0.0096,-0.0103,-0.0113,-0.0114,-0.0099,-0.0084,-0.0089,-0.007,-0.0048,-0.0026,-0.002,-0.0017,-0.0012,-0.0001,-0.0002,-0.0004,-0.0017,-0.002,-0.0023,0,0,0,0,0,0,-0.0089,-0.0098,-0.0091,-0.0108,-0.011,-0.0107,-0.0114,-0.0103,-0.0095,-0.0088,-0.006,-0.0053,-0.0044,-0.0035,-0.0029,-0.0018,-0.0009,-0.001,-0.002,-0.0023,-0.0025,-0.0025,0.0002,0,0,0,0,0,-0.0096,-0.0111,-0.0112,-0.0126,-0.0129,-0.0122,-0.0124,-0.0115,-0.0108,-0.0102,-0.0085,-0.0067,-0.0051,-0.0042,-0.0032,-0.0031,0.0004,-0.0026,-0.0028,-0.003,-0.0029,0.0031,0.0035,-0.0009,-0.0009,-0.0009,0,0,-0.01,-0.0109,-0.0115,-0.0128,-0.0129,-0.0144,-0.012,-0.0128,-0.0132,-0.0099,-0.0099,-0.0077,-0.0055,-0.0048,-0.0043,-0.0036,-0.0002,-0.0032,-0.0034,-0.0032,0.003,0.0035,0.0039,-0.001,-0.001,-0.001,0,0,-0.0126,-0.0127,-0.015,-0.0156,-0.0163,-0.0161,-0.0164,-0.0163,-0.0152,-0.0157,-0.0125,-0.0101,-0.0094,-0.0065,-0.0051,-0.0065,-0.0019,-0.0064,-0.0072,-0.0013,-0.0008,-0.0004,0.004,0.0049,-0.0063,-0.0063,-0.0063,0,-0.013,-0.0161,-0.0157,-0.018,-0.0189,-0.0171,-0.0194,-0.0186,-0.018,-0.0167,-0.0161,-0.0117,-0.0099,-0.0065,-0.007,-0.0067,-0.0032,-0.0059,-0.0014,-0.0008,-0.0003,0.0041,0.0051,-0.0064,-0.0064,-0.0064,-0.0064,0,-0.0168,-0.0195,-0.0209,-0.0233,-0.0241,-0.0259,-0.0249,-0.0246,-0.0232,-0.0212,-0.0179,-0.0147,-0.0116,-0.0106,-0.0095,-0.0049,-0.0035,-0.0022,-0.0,0.0001,0.0046,0.0057,-0.0066,-0.0065,-0.0065,-0.0065,0,0,-0.0171,-0.0228,-0.0231,-0.0257,-0.0271,-0.0282,-0.0287,-0.028,-0.0268,-0.0242,-0.0216,-0.018,-0.0143,-0.0125,-0.0092,-0.0043,0.0019,-0.0022,-0.0018,0.0031,0.0146,0.0114,0.0123,0.0048,0.005,0.0051,0.0161,0,-0.0202,-0.0268,-0.0279,-0.0328,-0.0361,-0.0346,-0.0351,-0.0333,-0.0307,-0.0277,-0.0212,-0.018,-0.0154,-0.0132,-0.0077,-0.0004,0.0047,-0.0013,0.0128,0.0132,0.0113,0.0135,0.0057,0.0169,0.0172,0.0174,0.0175,0,-0.023,-0.0277,-0.0339,-0.0385,-0.0394,-0.0414,-0.0407,-0.0406,-0.0348,-0.0322,-0.0261,-0.0207,-0.013,-0.0113,0.0031,-0.0006,0.0063,0.0122,0.0128,0.0112,0.0121,0.0168,0.0195,0.0194,0.0192,0.0191,0.0189,0,-0.0242,-0.0311,-0.0368,-0.0383,-0.0428,-0.0443,-0.0454,-0.0419,-0.0407,-0.0342,-0.0318,-0.0212,-0.0165,-0.005,0.0062,0.0055,0.022,0.0228,0.0269,0.0267,0.0271,0.0265,0.0331,0.0331,0.033,0.033,0.033,0,-0.027,-0.031,-0.0383,-0.0414,-0.0465,-0.0473,-0.0493,-0.0481,-0.0444,-0.0423,-0.0341,-0.0293,-0.0147,-0.0038,0.007,0.02,0.0232,0.0274,0.0298,0.0258,0.025,0.0279,0.0271,0.0334,0.0333,0.0333,0.0332,0,-0.0266,-0.0319,-0.0389,-0.0457,-0.0481,-0.0511,-0.0543,-0.0536,-0.0507,-0.0477,-0.0457,-0.0343,-0.0201,-0.0055,0.013,0.0194,0.0331,0.0366,0.0307,0.0325,0.0339,0.0329,0.0432,0.0432,0.0432,0.0432,0.0432,0,-0.0271,-0.0311,-0.0417,-0.0466,-0.0505,-0.0553,-0.0573,-0.0569,-0.0555,-0.0502,-0.0477,-0.0354,-0.0264,-0.0015,0.0126,0.0335,0.0351,0.0408,0.0379,0.0338,0.0352,0.0342,0.0333,0.0432,0.0432,0.0432,0.0432,0,-0.0273,-0.0313,-0.0373,-0.0476,-0.0533,-0.0579,-0.061,-0.0611,-0.0587,-0.0571,-0.0475,-0.0355,-0.0205,-0.0016,0.0134,0.0282,0.0367,0.0407,0.0408,0.0382,0.0339,0.035,0.0341,0.0432,0.0432,0.0432,0.0432,0,-0.0264,-0.0303,-0.0386,-0.0466,-0.0541,-0.0577,-0.0608,-0.059,-0.0577,-0.0525,-0.0494,-0.0336,-0.0247,-0.0043,0.0105,0.0237,0.0266,0.029,0.0298,0.03,0.0217,0.014,0.0201,0,0,0,0,0,-0.0248,-0.0282,-0.0364,-0.0456,-0.0527,-0.056,-0.0605,-0.0618,-0.0613,-0.0548,-0.0521,-0.0377,-0.017,-0.0067,0.0064,0.01,0.0283,0.0253,0.0314,0.043,0.0431,0.0352,0,0,0,0,0,0,-0.0243,-0.0302,-0.0344,-0.0414,-0.0466,-0.0524,-0.0554,-0.0565,-0.0522,-0.051,-0.0383,-0.0353,-0.0128,-0.0225,0.0074,0.011,0.016,0.0351,0.0353,0.043,0.043,0.0431,0.035,0,0,0,0,0]}]]